TAX91VP LKPR-LSZH

Flight info

Callsign TAX91VP
Flight time N/A
Altitude 34000
Route BALTU DCT DONAD DCT OKG L984 KULOK Z715 ANELA N869 TEDGO/N0463F350 T724 RILAX
Aircraft B738/M-SDE2E3FGHIRWXY/LB1

Departure

Time 2026-05-05 19:22
Airport Václav Havel Airport Prague (LKPR)

Arrival

Time N/A
Airport Zürich Airport (LSZH)
Time Latitude Longitude Altitude Speed Heading
2026-05-05 19:10 50.10391 14.26692 1173 ft 0 kts 34°
2026-05-05 19:16 50.10373 14.26674 1172 ft 6 kts 31°
2026-05-05 19:16 50.10359 14.26664 1168 ft 2 kts 355°
2026-05-05 19:16 50.10348 14.26671 1169 ft 2 kts 312°
2026-05-05 19:16 50.10341 14.26684 1170 ft 2 kts 305°
2026-05-05 19:17 50.10336 14.26697 1170 ft 0 kts 304°
2026-05-05 19:18 50.10340 14.26686 1171 ft 5 kts 304°
2026-05-05 19:19 50.10375 14.26606 1173 ft 13 kts 304°
2026-05-05 19:19 50.10438 14.26466 1169 ft 17 kts 305°
2026-05-05 19:19 50.10506 14.26314 1173 ft 17 kts 305°
2026-05-05 19:19 50.10536 14.26145 1173 ft 16 kts 262°
2026-05-05 19:20 50.10514 14.25975 1170 ft 16 kts 258°
2026-05-05 19:20 50.10494 14.25810 1175 ft 15 kts 259°
2026-05-05 19:20 50.10473 14.25651 1177 ft 15 kts 259°
2026-05-05 19:20 50.10452 14.25481 1178 ft 17 kts 259°
2026-05-05 19:21 50.10408 14.25358 1175 ft 13 kts 162°
2026-05-05 19:21 50.10292 14.25600 1183 ft 63 kts 126°
2026-05-05 19:21 50.09865 14.26478 1203 ft 140 kts 127°
2026-05-05 19:21 50.09148 14.27923 1513 ft 183 kts 126°
2026-05-05 19:22 50.08335 14.29472 2583 ft 185 kts 123°
2026-05-05 19:22 50.07547 14.31101 3571 ft 188 kts 124°
2026-05-05 19:22 50.06782 14.32728 4407 ft 189 kts 126°
2026-05-05 19:22 50.05969 14.34444 4650 ft 205 kts 127°
2026-05-05 19:23 50.05084 14.36299 4815 ft 221 kts 127°
2026-05-05 19:23 50.04132 14.38283 5000 ft 236 kts 128°
2026-05-05 19:23 50.03127 14.40362 5361 ft 241 kts 128°
2026-05-05 19:23 50.02120 14.42438 5756 ft 244 kts 128°
2026-05-05 19:24 50.01081 14.44576 6214 ft 246 kts 129°
2026-05-05 19:24 50.00155 14.46855 6395 ft 264 kts 111°
2026-05-05 19:24 50.00025 14.49766 6699 ft 282 kts 79°
2026-05-05 19:24 50.00936 14.52474 7331 ft 290 kts 46°
2026-05-05 19:25 50.02531 14.54456 8002 ft 294 kts 37°
2026-05-05 19:25 50.04221 14.56307 8647 ft 299 kts 36°
2026-05-05 19:25 50.05928 14.58195 9304 ft 304 kts 36°
2026-05-05 19:25 50.07636 14.60132 9947 ft 308 kts 37°
2026-05-05 19:26 50.09424 14.62186 10204 ft 328 kts 37°
2026-05-05 19:26 50.11401 14.64078 10344 ft 350 kts 20°
2026-05-05 19:26 50.13868 14.64624 10496 ft 368 kts 353°
2026-05-05 19:26 50.16357 14.63458 10734 ft 379 kts 333°
2026-05-05 19:27 50.18766 14.61657 11202 ft 386 kts 332°
2026-05-05 19:27 50.21203 14.59814 11803 ft 390 kts 333°
2026-05-05 19:27 50.23651 14.58007 12592 ft 396 kts 334°
2026-05-05 19:27 50.26192 14.56168 13633 ft 398 kts 334°
2026-05-05 19:28 50.28673 14.54333 14432 ft 402 kts 329°
2026-05-05 19:28 50.30818 14.51558 15160 ft 402 kts 306°
2026-05-05 19:28 50.32212 14.47785 15990 ft 399 kts 289°
2026-05-05 19:28 50.32929 14.43588 16766 ft 398 kts 275°
2026-05-05 19:29 50.32924 14.39273 17436 ft 399 kts 258°
2026-05-05 19:29 50.32285 14.35048 18143 ft 399 kts 252°
2026-05-05 19:29 50.31528 14.30843 18727 ft 403 kts 252°
2026-05-05 19:29 50.30802 14.26640 19292 ft 407 kts 253°
2026-05-05 19:30 50.30121 14.22325 19869 ft 410 kts 254°
2026-05-05 19:30 50.29482 14.17930 20436 ft 413 kts 255°
2026-05-05 19:30 50.28880 14.13547 20971 ft 416 kts 256°
2026-05-05 19:30 50.28288 14.09099 21503 ft 419 kts 256°
2026-05-05 19:31 50.27695 14.04605 21987 ft 421 kts 256°
2026-05-05 19:31 50.27101 14.00099 22404 ft 424 kts 256°
2026-05-05 19:31 50.26498 13.95546 22814 ft 427 kts 256°
2026-05-05 19:31 50.25898 13.91032 23245 ft 430 kts 256°
2026-05-05 19:32 50.25312 13.86433 23620 ft 432 kts 256°
2026-05-05 19:32 50.24743 13.81796 23991 ft 433 kts 257°
2026-05-05 19:32 50.24178 13.77140 24334 ft 436 kts 257°
2026-05-05 19:32 50.23612 13.72489 24668 ft 438 kts 256°
2026-05-05 19:33 50.23044 13.67850 25005 ft 440 kts 256°
2026-05-05 19:33 50.22459 13.63121 25333 ft 441 kts 256°
2026-05-05 19:33 50.21870 13.58382 25648 ft 443 kts 256°
2026-05-05 19:33 50.21283 13.53695 25958 ft 445 kts 256°
2026-05-05 19:34 50.20688 13.48957 26266 ft 447 kts 256°
2026-05-05 19:34 50.20084 13.44172 26566 ft 449 kts 256°
2026-05-05 19:34 50.19475 13.39364 26857 ft 451 kts 256°
2026-05-05 19:35 50.18255 13.29780 27432 ft 454 kts 256°
2026-05-05 19:35 50.17635 13.24933 27813 ft 453 kts 256°
2026-05-05 19:35 50.17019 13.20126 28275 ft 451 kts 256°
2026-05-05 19:35 50.16410 13.15394 28743 ft 448 kts 256°
2026-05-05 19:36 50.15790 13.10600 29203 ft 448 kts 256°
2026-05-05 19:36 50.15171 13.05828 29582 ft 447 kts 256°
2026-05-05 19:36 50.14557 13.01110 29966 ft 446 kts 256°
2026-05-05 19:36 50.13935 12.96348 30114 ft 451 kts 256°
2026-05-05 19:37 50.13307 12.91562 30230 ft 455 kts 256°
2026-05-05 19:37 50.12666 12.86693 30366 ft 459 kts 256°
2026-05-05 19:37 50.12023 12.81826 30520 ft 462 kts 256°
2026-05-05 19:37 50.11377 12.76939 30866 ft 460 kts 256°
2026-05-05 19:38 50.10730 12.72061 31305 ft 457 kts 255°
2026-05-05 19:38 50.10084 12.67208 31651 ft 455 kts 255°
2026-05-05 19:38 50.09436 12.62358 31910 ft 456 kts 255°
2026-05-05 19:38 50.08795 12.57581 32163 ft 456 kts 255°
2026-05-05 19:39 50.08142 12.52731 32476 ft 455 kts 255°
2026-05-05 19:39 50.07492 12.47909 32813 ft 454 kts 255°
2026-05-05 19:39 50.06845 12.43104 33113 ft 453 kts 256°
2026-05-05 19:39 50.06439 12.38213 33361 ft 458 kts 265°
2026-05-05 19:40 50.06474 12.33225 33590 ft 460 kts 269°
2026-05-05 19:40 50.06592 12.28318 33796 ft 461 kts 269°
2026-05-05 19:40 50.06708 12.23297 33770 ft 463 kts 269°
2026-05-05 19:41 50.06863 12.13286 33773 ft 460 kts 268°
2026-05-05 19:41 50.06966 12.03386 33784 ft 456 kts 268°
2026-05-05 19:42 50.07057 11.93541 33816 ft 455 kts 268°
2026-05-05 19:42 50.07143 11.83710 33799 ft 456 kts 268°
2026-05-05 19:43 50.07224 11.73787 33800 ft 457 kts 267°
2026-05-05 19:43 50.06557 11.64098 33792 ft 448 kts 245°
2026-05-05 19:43 50.05152 11.59810 33790 ft 443 kts 232°
2026-05-05 19:44 50.03187 11.56231 33804 ft 438 kts 222°
2026-05-05 19:44 49.98776 11.49609 33797 ft 439 kts 222°
2026-05-05 19:45 49.94445 11.42921 33821 ft 440 kts 222°
2026-05-05 19:45 49.89795 11.36843 33807 ft 437 kts 213°
2026-05-05 19:46 49.84811 11.31388 33818 ft 437 kts 213°
2026-05-05 19:46 49.79874 11.25863 33809 ft 437 kts 214°
2026-05-05 19:47 49.75177 11.19925 33820 ft 439 kts 224°
2026-05-05 19:47 49.71013 11.13045 33822 ft 438 kts 224°
2026-05-05 19:48 49.66811 11.06232 33830 ft 437 kts 223°
2026-05-05 19:48 49.62566 10.99485 33828 ft 436 kts 223°
2026-05-05 19:49 49.58329 10.92805 33832 ft 436 kts 223°
2026-05-05 19:49 49.54099 10.86136 33828 ft 436 kts 223°
2026-05-05 19:50 49.49853 10.79451 33854 ft 436 kts 223°
2026-05-05 19:50 49.45617 10.72726 33870 ft 438 kts 224°